Location: Gebel Chams
(22.2500°N, 31.5667°E)
Time: 11:03:05
(UTC+00:00)

Daily predictions for brighter satellites

Satellite Brightness Start Highest point End
(mag) Time Altitude Azimuth Time Altitude Azimuth Time Altitude Azimuth
GEOS 3 Rocket 4.0 16:39:51 10° SE 16:45:02 53° ENE 16:50:15 10° NNW
IRIDIUM 106 4.4 16:41:13 10° S 16:46:25 87° W 16:51:39 10° N
Cosmos 2292 Rocket 3.3 16:46:18 10° NNW 16:49:28 60° W 16:52:21 10° S
Cosmos 2221 3.3 16:46:30 10° SSE 16:50:12 29° E 16:53:55 10° NNE
ERS-2 2.6 16:49:10 10° NNE 16:52:34 38° E 16:55:57 10° S
Meteor 2-14 Rocket 4.4 16:47:28 10° N 16:53:35 83° E 16:59:41 10° S
BREEZE-M DEB (TANK) 2.5 16:51:12 10° NW 16:53:57 80° NE 17:01:03 10° SE
SJ-11-01 4.5 16:56:05 10° S 17:00:47 78° WSW 17:05:30 10° NNW
GPS 2-04 Rocket1 2.8 16:59:22 10° SW 17:03:27 61° SSE 17:07:27 10° ENE
H-2A R/B 2.7 16:59:09 10° S 17:03:56 54° W 17:08:44 10° NNW
USA 186 3.5 17:03:38 12° E 17:04:04 12° ENE 17:05:18 10° NE
YAOGAN 1 3.0 17:05:20 10° S 17:09:37 66° W 17:13:54 10° NNW
Cosmos 1763 Rocket 3.4 17:04:35 10° NNW 17:09:42 79° ENE 17:14:50 10° SSE
Cosmos 1766 Rocket 3.7 17:06:02 10° N 17:10:22 56° E 17:14:43 10° SSE
Cosmos 2151 4.5 17:08:32 10° NNW 17:12:28 38° W 17:16:23 10° SSW
Cosmos 1437 Rocket 4.1 17:13:03 17° ESE 17:13:53 18° E 17:16:35 10° NE
OBJECT-B 2.6 17:16:04 15° E 17:16:17 15° ENE 17:18:17 10° NE
ATLAS 5 CENTAUR R/B 2.6 17:13:36 10° NW 17:16:27 67° WSW 17:24:59 10° SSE
Cosmos 841 Rocket 4.1 17:12:21 10° N 17:17:04 36° ENE 17:20:22 17° SE
USA 267 3.3 17:13:11 13° SE 17:19:13 73° NE 17:25:45 10° NNW
Cosmos 1603 4.3 17:14:10 10° N 17:19:22 37° ENE 17:22:52 19° SE
Centaur D-1AR AC-36 2.1 17:11:42 10° WSW 17:20:00 60° S 17:22:22 20° E
ARGOS 3.7 17:16:53 10° S 17:22:10 61° W 17:27:26 10° NNW
Geosat 4.2 17:17:37 10° SSE 17:22:36 70° WSW 17:27:35 10° NNW
Cosmos 468 Rocket 4.3 17:18:54 10° NNW 17:24:04 68° WSW 17:29:14 10° S
Meteor 2-15 Rocket 4.3 17:21:51 10° S 17:27:53 76° E 17:33:56 10° N
MOS 1-B Rocket 4.1 17:22:24 10° NNE 17:29:15 66° E 17:35:10 10° S
Cosmos 1174 4.3 17:27:11 10° N 17:29:56 25° ENE 17:30:08 25° ENE
GPS 2-18 Rocket1 3.5 17:32:27 10° WSW 17:35:55 39° SSE 17:36:33 36° SE
SL-08 RB Rocket 4.5 17:32:10 10° S 17:36:39 52° W 17:41:06 10° NNW
SJ-6B 3.3 17:37:17 34° ESE 17:37:59 37° ENE 17:41:34 10° N
Haruka 4.0 17:22:25 10° WNW 17:39:14 77° NNE 17:42:00 28° E
Lacrosse 5 rocket 1.6 17:36:02 10° NW 17:40:27 78° WSW 17:42:47 28° SSE
Ariane Rocket 3.9 17:42:06 27° E 17:43:01 29° ENE 17:47:20 10° NNE
Cosmos 1844 Rocket 2.9 17:43:03 10° SSW 17:48:34 70° WNW 17:54:06 10° NNE
Cosmos 1570 Rocket 4.0 17:46:16 10° N 17:51:25 57° ENE 17:53:05 39° SE
Helios 1A Rocket 3.4 17:50:04 19° S 17:52:53 58° W 17:56:57 10° NNW
Cosmos 1606 2.7 17:51:10 20° S 17:53:37 76° W 17:57:21 10° N
Cosmos 1408 Rocket 3.5 17:50:06 10° N 17:54:32 85° W 17:56:41 30° S
Cosmos 1943 3.1 17:51:39 10° NNW 17:57:19 86° ENE 17:59:55 34° SSE
Cosmos 921 Rocket 2.8 17:53:48 10° N 17:58:01 84° ENE 17:58:52 56° SSE
ASTRO E2 4.4 17:55:09 10° NW 17:58:30 25° N 17:59:41 22° NE
Cosmos 1354 Rocket 4.2 17:57:58 45° ESE 17:58:34 47° ESE 18:03:33 10° NNE
GPS 2-17 Rocket1 3.4 17:55:48 10° WSW 18:00:25 46° SSE 18:00:32 46° SSE
IRS-1A Rocket 4.5 18:00:08 42° ESE 18:01:36 53° ENE 18:07:12 10° N
GENESIS II 4.0 17:58:43 10° NNW 18:02:34 83° WSW 18:02:46 79° S
USA 229 DEB 4.1 17:55:06 10° NNW 18:02:44 75° WSW 18:07:35 26° SSE
USA 229 4.1 17:55:11 10° NNW 18:02:49 76° WSW 18:07:38 26° SSE
Cosmos 1814 Rocket 3.8 17:59:15 10° N 18:04:25 79° ENE 18:05:44 51° SSE
NOSS 3-3 (A) 3.5 18:02:26 10° SSW 18:07:49 71° ESE 18:13:36 10° NNE
NOSS 3-3 (C) 3.5 18:02:32 10° SSW 18:07:55 70° ESE 18:13:44 10° NNE
Cosmos 1844 4.3 18:02:52 10° SSW 18:08:31 57° WNW 18:14:08 10° N
Fermi 3.8 18:07:14 10° WNW 18:10:56 69° WSW 18:10:56 69° WSW
Cosmos 540 Rocket 4.5 18:07:37 10° NNW 18:12:24 42° W 18:15:21 21° SSW
Resurs 1-3 3.9 18:13:25 51° NE 18:13:25 51° NE 18:17:04 10° N
Cosmos 1745 Rocket 4.4 18:08:23 10° NNE 18:13:59 42° ENE 18:13:59 42° ENE
SL-08 R/B 4.4 18:11:18 10° N 18:17:35 72° E 18:19:06 53° SSE
S3M 4.0 18:15:34 23° S 18:19:48 88° W 18:26:11 10° N
Cosmos 1743 Rocket 3.8 18:21:58 10° N 18:25:57 66° WNW 18:25:57 66° WNW
GOES 2 Rocket 4.4 18:20:00 10° WSW 18:29:19 67° SSE 18:30:48 56° ESE
Delta 2 Rocket 3.9 18:25:20 10° WSW 18:29:49 63° WNW 18:29:49 63° WNW
ASC 2 Rocket 4.0 18:31:03 10° W 18:35:48 47° WSW 18:35:48 47° WSW
Cosmos 1500 Rocket 4.5 18:34:06 10° NNW 18:37:55 44° WNW 18:37:55 44° WNW
Mugunghwa Rocket 3.9 18:38:02 10° WSW 18:44:26 84° S 18:44:26 84° S
OBJECT-B 4.1 18:49:05 12° W 18:49:05 12° W 18:49:44 10° WNW
Resurs 01 Rocket 3.3 18:52:09 30° NNW 18:52:09 30° NNW 18:54:23 10° NNW
Cosmos 2278 Rocket 4.3 19:23:59 19° NNE 19:23:59 19° NNE 19:25:28 10° NNE
Kakehashi 4.3 19:14:23 10° WNW 19:26:01 63° N 19:26:01 63° N
Milstar 3 3.7 19:43:07 10° W 19:56:05 66° NNW 19:56:05 66° NNW
ATLAS 5 CENTAUR R/B 4.3 20:03:21 10° NNW 20:05:41 25° NNW 20:05:41 25° NNW
